Regional Weather Roundup
Issued by NWS

Home | Current Version | Previous Version | Text Only | Print | Product List | Glossary On
Versions: 1 2 3 4 5 6 7 8 9 10 11 12 13 14 15 16 17 18 19 20 21 22 23 24 25 26 27 28 29 30 31 32 33 34 35 36 37 38 39 40 41 42 43 44 45 46 47 48 49 50
000
ASUS44 KBMX 241210
RWRAL

ALABAMA REGIONAL WEATHER ROUNDUP
NATIONAL WEATHER SERVICE BIRMINGHAM AL
700 AM CDT SUN MAY 24 2015

NOTE: "FAIR" INDICATES FEW OR NO CLOUDS BELOW 12,000 FEET
WITH NO SIGNIFICANT WEATHER AND/OR OBSTRUCTIONS TO VISIBILITY.

THE REMARK "TC" DENOTES TEMPERATURE IN DEGREES CELSIUS.

ALZ001>011-014-016>018-020-241300-
NORTH ALABAMA

CITY           SKY/WX    TMP DP  RH WIND       PRES   REMARKS
MUSCLE SHOALS  MOSUNNY   65  55  70 E6        30.25R
6HR MIN TEMP:  61; 6HR MAX TEMP:  66;

HUNTSVILLE     MOSUNNY   69  55  60 SE12      30.27R
6HR MIN TEMP:  65; 6HR MAX TEMP:  69;

DECATUR        SUNNY     65  55  70 SE7       30.27R
6HR MIN TEMP:  60; 6HR MAX TEMP:  66;

HALEYVILLE     FAIR      65  56  72 CALM      30.27R
6HR MIN TEMP:  63; 6HR MAX TEMP:  68;

GADSDEN        SUNNY    N/A N/A N/A CALM      30.30R
$$

ALZ012-013-022-023-030>036-040>044-241300-
WEST CENTRAL ALABAMA

CITY           SKY/WX    TMP DP  RH WIND       PRES   REMARKS
TUSCALOOSA     SUNNY     70  59  68 VRB5      30.22R
6HR MIN TEMP:  69; 6HR MAX TEMP:  74;

$$

ALZ015-024>027-033>036-040>044-241300-
CENTRAL ALABAMA

CITY           SKY/WX    TMP DP  RH WIND       PRES   REMARKS
BIRMINGHAM     MOSUNNY   69  60  73 SE10G18   30.28R
6HR MIN TEMP:  69; 6HR MAX TEMP:  73;

MONTGOMERY     SUNNY     68  62  81 E8        30.24S
6HR MIN TEMP:  65; 6HR MAX TEMP:  68;

SHELBY CO ARPT SUNNY     68  61  78 SE5       30.26R
6HR MIN TEMP:  65; 6HR MAX TEMP:  70;

MAXWELL AFB    MOSUNNY   70  64  81 E6        30.24R
6HR MIN TEMP:  68; 6HR MAX TEMP:  73;

GREENVILLE     FAIR      70  64  81 SE10      30.22S
6HR MIN TEMP:  67; 6HR MAX TEMP:  70;

$$

ALZ019-021-028-029-037-038-045>048-241300-
EAST CENTRAL ALABAMA

CITY           SKY/WX    TMP DP  RH WIND       PRES   REMARKS
ANNISTON       CLOUDY    68  61  78 NE7       30.31R
6HR MIN TEMP:  61; 6HR MAX TEMP:  68;

ALEXANDER CITY CLOUDY    67  61  81 E6        30.29S
6HR MIN TEMP:  64; 6HR MAX TEMP:  67;

AUBURN         CLOUDY    64  57  77 E8        30.31R
6HR MIN TEMP:  64; 6HR MAX TEMP:  68;

$$

ALZ051>064-241300-
SOUTHWEST ALABAMA

CITY           SKY/WX    TMP DP  RH WIND       PRES   REMARKS
MOBILE         PTSUNNY   75  73  93 E5        30.15S FOG
6HR MIN TEMP:  73; 6HR MAX TEMP:  75;

BROOKLEY FIELD PTSUNNY   77  73  87 E12       30.15S
6HR MIN TEMP:  76; 6HR MAX TEMP:  78;

EVERGREEN      MOSUNNY   69  64  84 SE7       30.20F
6HR MIN TEMP:  64; 6HR MAX TEMP:  69;

$$

ALZ049-050-065>069-241300-
SOUTHEAST ALABAMA

CITY           SKY/WX    TMP DP  RH WIND       PRES   REMARKS
DOTHAN         CLOUDY    73  67  81 E12       30.29R
6HR MIN TEMP:  71; 6HR MAX TEMP:  73;

OZARK          CLOUDY    72  67  85 E7        30.25R
6HR MIN TEMP:  70; 6HR MAX TEMP:  72;

TROY           MOSUNNY   71  66  84 E6        30.25S
6HR MIN TEMP:  69; 6HR MAX TEMP:  71;

EUFAULA        CLOUDY    73  66  78 SE7       30.27R
6HR MIN TEMP:  70; 6HR MAX TEMP:  73;

$$



USA.gov is the U.S. government's official web portal to all federal, state and local government web resources and services.